MIDORI II (ADEOS-II)

Last updated on Sat Aug 15 2026 00:02:08 GMT+0000 (Coordinated Universal Time)

1 27597U 02056A 26226.51881852 .00000094 00000+0 54720-4 0 9993 2 27597 98.7927 186.2889 0000186 108.7611 251.3590 14.29375565232846
UTC large
Height (km)
Speed (km/s)
/
Latitude / Longitude
Inclination (degrees)
Orbital Period (minutes)
Azimuth
Elevation
Range (km)
Doppler Factor

Next 0 passes for location: London (51.5072 / 0.1276)

No passes found over London.
MIDORI II (ADEOS-II)